Location: Niverville
(49.6028°N, 97.0419°W)
Time: 06:28:16
(UTC-05:00)

Amateur Radio Satellites - All Passes

Search period start: 31 July 2014 05:58
Search period end: 01 August 2014 05:58
Location: Niverville, 49.6028°N, 97.0419°W

Satellite Date Start Highest point End Downlink Frequencies (MHz)
Time Altitude Azimuth
Uosat F 31 Jul 06:02:15 06:07:19 84° 105° (ESE) 06:12:20 435.120 FM
OPAL 31 Jul 06:16:10 06:17:46 11° 272° (W) 06:19:24 ?
PCSat 31 Jul 06:17:20 06:19:43 13° 8° (N) 06:22:07 145.825 MHz
JAS-1B 31 Jul 06:44:35 06:51:50 26° 315° (NW) 06:58:30 435.800 - 435.900 CW/SSB
KITSAT 1 31 Jul 06:53:12 07:01:11 65° 120° (ESE) 07:09:11 435.175 FM
Hamsat 31 Jul 06:54:17 06:58:05 29° 95° (E) 07:01:52 145.90 MHz
STRAND 1 31 Jul 06:59:54 07:05:01 69° 71° (ENE) 07:10:09 ?
MaSat-1 31 Jul 07:05:31 07:10:43 56° 246° (WSW) 07:15:39 437.345 MHz
TMSAT-1 31 Jul 07:10:58 07:12:03 11° 312° (NW) 07:13:08 436.925 FM
AO-7 31 Jul 07:22:09 07:30:09 53° 301° (WNW) 07:38:05 29.400 - 29.500 MHz
Sapphire 31 Jul 07:27:38 07:31:20 18° 24° (NNE) 07:35:01 437.095 MHz 1200 baud AX-25 AFSK
Saudisat 1A 31 Jul 07:31:32 07:35:18 28° 117° (ESE) 07:39:05 436.775 MHz
JAS-2 31 Jul 07:40:25 07:46:23 58° 100° (E) 07:51:42 435.800 - 435.900 CW/SSB, 435.910 FM
Uosat F 31 Jul 07:42:15 07:45:29 18° 305° (NW) 07:48:43 435.120 FM
PCSat 31 Jul 08:00:42 08:05:09 25° 33° (NNE) 08:09:36 145.825 MHz
Hamsat 31 Jul 08:30:12 08:34:05 34° 293° (WNW) 08:37:59 145.90 MHz
JAS-1B 31 Jul 08:38:05 08:38:55 10° 340° (NNW) 08:39:44 435.800 - 435.900 CW/SSB
STRAND 1 31 Jul 08:41:07 08:44:44 19° 270° (W) 08:48:21 ?
KITSAT 1 31 Jul 08:49:20 08:57:02 45° 324° (NW) 09:04:45 435.175 FM
SO-67 31 Jul 08:52:22 08:55:52 89° 283° (WNW) 08:59:21 435.3500 MHz FM
Saudisat 1A 31 Jul 09:10:24 09:14:42 49° 317° (NW) 09:19:01 436.775 MHz
Sapphire 31 Jul 09:10:39 09:15:59 54° 48° (NE) 09:21:18 437.095 MHz 1200 baud AX-25 AFSK
AO-7 31 Jul 09:16:11 09:21:09 18° 324° (NW) 09:26:07 29.400 - 29.500 MHz
HO-68 31 Jul 09:21:09 09:26:22 21° 89° (E) 09:31:32 435.675 MHz FM
JAS-2 31 Jul 09:26:04 09:31:04 27° 303° (WNW) 09:35:38 435.800 - 435.900 CW/SSB, 435.910 FM
PCSat 31 Jul 09:43:49 09:49:18 89° 236° (SW) 09:54:44 145.825 MHz
Oscar 11 31 Jul 10:03:49 10:05:49 13° 87° (E) 10:07:50 145.825 FM, Beacon 2401.500 USB
KITSAT 1 31 Jul 10:48:12 10:54:42 25° 352° (N) 11:01:12 435.175 FM
Saudisat 1A 31 Jul 10:52:30 10:55:18 16° 339° (NNW) 10:58:07 436.775 MHz
Sapphire 31 Jul 10:54:28 10:59:11 31° 248° (WSW) 11:03:53 437.095 MHz 1200 baud AX-25 AFSK
UKube-1 31 Jul 10:55:50 11:00:12 69° 103° (ESE) 11:04:31 145.840 MHz, 145.915 MHz
HO-68 31 Jul 11:07:48 11:15:00 88° 289° (WNW) 11:22:09 435.675 MHz FM
PCSat 31 Jul 11:28:39 11:31:58 17° 255° (WSW) 11:35:16 145.825 MHz
Oscar 11 31 Jul 11:38:13 11:42:35 79° 286° (WNW) 11:46:56 145.825 FM, Beacon 2401.500 USB
JAS-1B 31 Jul 12:06:08 12:11:21 16° 33° (NNE) 12:16:36 435.800 - 435.900 CW/SSB
FUNcube-1 31 Jul 12:06:51 12:11:03 82° 104° (ESE) 12:15:17 145.950 - 145.970 MHz USB
Oscar 19 31 Jul 12:11:07 12:13:12 13° 51° (NE) 12:15:17 437.125 CW, 437.150 USB
UKube-1 31 Jul 12:33:08 12:35:56 17° 302° (WNW) 12:38:43 145.840 MHz, 145.915 MHz
Saudisat 1A 31 Jul 12:35:01 12:36:41 12° 4° (N) 12:38:21 436.775 MHz
Oscar 16 31 Jul 12:37:57 12:41:39 21° 57° (ENE) 12:45:22 437.025 USB, Beacon 2401.1428
KITSAT 1 31 Jul 12:45:57 12:52:56 30° 21° (NNE) 12:59:52 435.175 FM
SO-50 31 Jul 12:46:07 12:50:21 42° 121° (ESE) 12:54:40 436.795 FM
HO-68 31 Jul 12:56:26 13:01:51 24° 310° (NW) 13:07:15 435.675 MHz FM
AO-7 31 Jul 12:59:14 12:59:22 10° 20° (NNE) 12:59:30 29.400 - 29.500 MHz
RS-15 31 Jul 13:00:59 13:10:33 36° 108° (ESE) 13:19:57 29.354 - 29.394 USB, Beacon 29.352 USB
ITAMSAT 1 31 Jul 13:04:48 13:08:11 18° 55° (NE) 13:11:33 435.822 SSB
Oscar 11 31 Jul 13:16:30 13:18:03 12° 305° (NW) 13:19:36 145.825 FM, Beacon 2401.500 USB
Uribyol 2 31 Jul 13:22:36 13:26:43 25° 59° (ENE) 13:30:51 436.500 FM
AO-27 31 Jul 13:23:46 13:27:54 25° 59° (ENE) 13:32:02 436.795 MHz FM
TMSAT-1 31 Jul 13:37:51 13:39:49 12° 50° (NE) 13:41:46 436.925 FM
AO-Echo 31 Jul 13:42:16 13:46:59 33° 64° (ENE) 13:51:41 ?
FUNcube-1 31 Jul 13:44:51 13:46:54 14° 302° (WNW) 13:48:58 145.950 - 145.970 MHz USB
Oscar 19 31 Jul 13:46:33 13:51:36 65° 71° (ENE) 13:56:42 437.125 CW, 437.150 USB
JAS-1B 31 Jul 13:50:39 13:59:17 43° 57° (ENE) 14:08:20 435.800 - 435.900 CW/SSB
Gurwin Techsat 1B 31 Jul 14:01:21 14:05:26 23° 58° (ENE) 14:09:31 435.225 FM
Saudisat 1A 31 Jul 14:14:29 14:17:54 21° 28° (NNE) 14:21:18 436.775 MHz
Oscar 16 31 Jul 14:15:24 14:20:31 72° 257° (WSW) 14:25:40 437.025 USB, Beacon 2401.1428
SO-50 31 Jul 14:26:48 14:31:00 36° 322° (NW) 14:35:18 436.795 FM
UOSAT-12 31 Jul 14:32:03 14:36:19 38° 120° (ESE) 14:40:41 437.025 FM, 437.400 FM
KITSAT 1 31 Jul 14:41:46 14:49:52 69° 48° (NE) 14:57:54 435.175 FM
ITAMSAT 1 31 Jul 14:41:48 14:47:01 88° 254° (WSW) 14:52:16 435.822 SSB
AO-7 31 Jul 14:42:45 14:49:18 27° 46° (NE) 14:55:50 29.400 - 29.500 MHz
Uribyol 2 31 Jul 15:00:43 15:05:51 59° 259° (WSW) 15:11:00 436.500 FM
AO-27 31 Jul 15:01:54 15:07:03 60° 258° (WSW) 15:12:14 436.795 MHz FM
RS-15 31 Jul 15:10:50 15:21:55 80° 312° (NW) 15:32:56 29.354 - 29.394 USB, Beacon 29.352 USB
TMSAT-1 31 Jul 15:13:30 15:18:43 60° 70° (ENE) 15:23:56 436.925 FM
AO-Echo 31 Jul 15:20:35 15:25:38 43° 262° (W) 15:30:42 ?
Oscar 19 31 Jul 15:27:42 15:31:25 20° 270° (W) 15:35:10 437.125 CW, 437.150 USB
Gurwin Techsat 1B 31 Jul 15:39:41 15:44:58 66° 258° (WSW) 15:50:17 435.225 FM
JAS-1B 31 Jul 15:40:03 15:49:15 67° 259° (W) 15:59:12 435.800 - 435.900 CW/SSB
Uosat F 31 Jul 15:42:06 15:46:26 30° 62° (ENE) 15:50:46 435.120 FM
Saudisat 1A 31 Jul 15:53:41 15:58:08 84° 50° (NE) 16:02:33 436.775 MHz
Oscar 16 31 Jul 15:59:40 16:00:49 11° 276° (W) 16:01:58 437.025 USB, Beacon 2401.1428
SO-50 31 Jul 16:10:13 16:12:52 15° 346° (NNW) 16:15:33 436.795 FM
UOSAT-12 31 Jul 16:12:04 16:16:29 41° 320° (NW) 16:20:59 437.025 FM, 437.400 FM
JAS-2 31 Jul 16:15:36 16:18:42 13° 45° (NE) 16:21:42 435.800 - 435.900 CW/SSB, 435.910 FM
ITAMSAT 1 31 Jul 16:24:38 16:27:18 14° 273° (W) 16:29:58 435.822 SSB
AO-7 31 Jul 16:32:41 16:41:03 84° 68° (ENE) 16:49:28 29.400 - 29.500 MHz
KITSAT 1 31 Jul 16:37:40 16:44:49 36° 250° (WSW) 16:51:56 435.175 FM
OPAL 31 Jul 16:39:18 16:42:52 19° 93° (E) 16:46:27 ?
TMSAT-1 31 Jul 16:54:54 16:59:02 23° 269° (W) 17:03:12 436.925 FM
Uosat F 31 Jul 17:20:13 17:25:03 45° 261° (W) 17:29:55 435.120 FM
Gurwin Techsat 1B 31 Jul 17:25:29 17:25:59 10° 277° (W) 17:26:28 435.225 FM
RS-15 31 Jul 17:25:55 17:36:04 41° 342° (NNW) 17:46:18 29.354 - 29.394 USB, Beacon 29.352 USB
Saudisat 1A 31 Jul 17:34:35 17:37:08 15° 249° (WSW) 17:39:41 436.775 MHz
JAS-1B 31 Jul 17:35:37 17:41:40 19° 282° (WNW) 17:48:01 435.800 - 435.900 CW/SSB
Hamsat 31 Jul 17:51:55 17:55:44 35° 68° (ENE) 17:59:36 145.90 MHz
SO-50 31 Jul 17:52:52 17:55:20 14° 11° (N) 17:57:49 436.795 FM
UOSAT-12 31 Jul 17:54:55 17:57:51 16° 343° (NNW) 18:00:49 437.025 FM, 437.400 FM
JAS-2 31 Jul 17:55:07 18:02:20 49° 65° (ENE) 18:08:58 435.800 - 435.900 CW/SSB, 435.910 FM
OPAL 31 Jul 18:17:11 18:22:15 70° 291° (WNW) 18:27:21 ?
AO-7 31 Jul 18:28:07 18:34:48 26° 269° (W) 18:41:32 29.400 - 29.500 MHz
STRAND 1 31 Jul 19:07:18 19:10:32 17° 88° (E) 19:13:45 ?
Hamsat 31 Jul 19:28:15 19:31:47 26° 266° (W) 19:35:22 145.90 MHz
SO-67 31 Jul 19:29:29 19:32:54 59° 74° (ENE) 19:36:21 435.3500 MHz FM
SO-50 31 Jul 19:33:12 19:37:21 30° 34° (NE) 19:41:34 436.795 FM
UOSAT-12 31 Jul 19:37:27 19:39:54 14° 8° (N) 19:42:21 437.025 FM, 437.400 FM
JAS-2 31 Jul 19:40:08 19:47:25 44° 263° (W) 19:54:09 435.800 - 435.900 CW/SSB, 435.910 FM
RS-15 31 Jul 19:41:39 19:51:47 40° 16° (NNE) 20:02:05 29.354 - 29.394 USB, Beacon 29.352 USB
HO-68 31 Jul 19:54:39 20:00:31 28° 53° (NE) 20:06:23 435.675 MHz FM
OPAL 31 Jul 19:57:47 20:00:18 14° 310° (NW) 20:02:51 ?
UKube-1 31 Jul 20:21:36 20:24:09 15° 57° (ENE) 20:26:42 145.840 MHz, 145.915 MHz
STRAND 1 31 Jul 20:45:13 20:50:21 78° 287° (WNW) 20:55:26 ?
MaSat-1 31 Jul 21:00:54 21:04:40 30° 107° (ESE) 21:08:53 437.345 MHz
Oscar 11 31 Jul 21:02:52 21:05:53 19° 61° (ENE) 21:08:54 145.825 FM, Beacon 2401.500 USB
SO-67 31 Jul 21:05:10 21:06:22 11° 272° (W) 21:07:33 435.3500 MHz FM
SO-50 31 Jul 21:13:35 21:18:16 63° 235° (SW) 21:23:01 436.795 FM
UOSAT-12 31 Jul 21:17:32 21:21:36 27° 32° (NNE) 21:25:39 437.025 FM, 437.400 FM
FUNcube-1 31 Jul 21:33:24 21:35:51 15° 59° (ENE) 21:38:17 145.950 - 145.970 MHz USB
HO-68 31 Jul 21:40:26 21:47:37 78° 254° (WSW) 21:54:49 435.675 MHz FM
RS-15 31 Jul 21:55:01 22:06:04 77° 46° (NE) 22:17:26 29.354 - 29.394 USB, Beacon 29.352 USB
UKube-1 31 Jul 21:55:26 21:59:48 78° 256° (WSW) 22:04:13 145.840 MHz, 145.915 MHz
STRAND 1 31 Jul 22:26:01 22:28:44 15° 307° (NW) 22:31:27 ?
Oscar 11 31 Jul 22:37:27 22:41:41 58° 259° (W) 22:45:58 145.825 FM, Beacon 2401.500 USB
MaSat-1 31 Jul 22:37:31 22:41:47 44° 310° (NW) 22:46:37 437.345 MHz
ISS 31 Jul 22:41:11 22:42:14 11° 135° (SE) 22:43:17 145.800 FM
UOSAT-12 31 Jul 22:57:29 23:02:14 74° 233° (SW) 23:06:54 437.025 FM, 437.400 FM
FUNcube-1 31 Jul 23:07:31 23:11:47 72° 257° (WSW) 23:16:00 145.950 - 145.970 MHz USB
HO-68 31 Jul 23:32:07 23:36:29 17° 274° (W) 23:40:53 435.675 MHz FM
Sapphire 31 Jul 23:58:44 00:02:18 18° 106° (ESE) 00:05:54 437.095 MHz 1200 baud AX-25 AFSK
RS-15 01 Aug 00:07:54 00:17:38 39° 251° (WSW) 00:27:42 29.354 - 29.394 USB, Beacon 29.352 USB
ISS 01 Aug 00:15:04 00:18:19 51° 153° (SSE) 00:21:36 145.800 FM
MaSat-1 01 Aug 00:18:04 00:20:30 14° 333° (NNW) 00:23:01 437.345 MHz
PCSat 01 Aug 00:30:13 00:35:02 34° 113° (ESE) 00:39:53 145.825 MHz
UOSAT-12 01 Aug 00:39:49 00:41:33 12° 252° (WSW) 00:43:16 437.025 FM, 437.400 FM
Sapphire 01 Aug 01:39:38 01:45:03 84° 306° (NW) 01:50:31 437.095 MHz 1200 baud AX-25 AFSK
ISS 01 Aug 01:51:43 01:55:03 63° 352° (N) 01:58:24 145.800 FM
Oscar 19 01 Aug 01:54:48 01:58:05 17° 88° (E) 02:01:21 437.125 CW, 437.150 USB
PCSat 01 Aug 02:13:02 02:18:18 50° 313° (NW) 02:23:36 145.825 MHz
Oscar 16 01 Aug 02:22:56 02:27:27 29° 94° (E) 02:31:56 437.025 USB, Beacon 2401.1428
OPAL 01 Aug 02:23:55 02:25:02 11° 46° (NE) 02:26:09 ?
ITAMSAT 1 01 Aug 02:50:53 02:55:03 24° 92° (E) 02:59:11 435.822 SSB
Uribyol 2 01 Aug 03:09:08 03:13:52 35° 96° (E) 03:18:35 436.500 FM
AO-27 01 Aug 03:10:38 03:15:24 35° 96° (E) 03:20:07 436.795 MHz FM
JAS-1B 01 Aug 03:22:11 03:30:54 40° 91° (E) 03:38:24 435.800 - 435.900 CW/SSB
AO-Echo 01 Aug 03:23:26 03:28:20 47° 98° (E) 03:33:03 ?
Sapphire 01 Aug 03:24:57 03:29:17 24° 328° (NNW) 03:33:38 437.095 MHz 1200 baud AX-25 AFSK
TMSAT-1 01 Aug 03:25:59 03:29:23 17° 88° (E) 03:32:47 436.925 FM
ISS 01 Aug 03:28:36 03:31:58 72° 12° (NNE) 03:35:20 145.800 FM
Oscar 19 01 Aug 03:32:51 03:38:03 79° 287° (WNW) 03:43:14 437.125 CW, 437.150 USB
MaSat-1 01 Aug 03:38:10 03:40:02 12° 23° (NNE) 03:41:54 437.345 MHz
Gurwin Techsat 1B 01 Aug 03:51:35 03:56:29 36° 96° (E) 04:01:21 435.225 FM
OPAL 01 Aug 03:58:05 04:02:53 54° 66° (ENE) 04:07:44 ?
PCSat 01 Aug 03:59:27 04:03:02 17° 337° (NNW) 04:06:37 145.825 MHz
Oscar 16 01 Aug 04:02:04 04:06:59 45° 293° (WNW) 04:11:53 437.025 USB, Beacon 2401.1428
ITAMSAT 1 01 Aug 04:29:50 04:34:54 55° 291° (WNW) 04:39:55 435.822 SSB
AO-7 01 Aug 04:30:29 04:36:25 21° 88° (E) 04:42:18 29.400 - 29.500 MHz
Uribyol 2 01 Aug 04:48:38 04:53:23 38° 295° (WNW) 04:58:06 436.500 FM
AO-27 01 Aug 04:50:10 04:54:57 38° 295° (WNW) 04:59:42 436.795 MHz FM
AO-Echo 01 Aug 05:02:36 05:06:54 28° 298° (WNW) 05:11:04 ?
TMSAT-1 01 Aug 05:04:38 05:09:58 79° 287° (WNW) 05:15:15 436.925 FM
ISS 01 Aug 05:05:26 05:08:35 37° 211° (SSW) 05:11:42 145.800 FM
Sapphire 01 Aug 05:12:28 05:14:46 13° 354° (N) 05:17:05 437.095 MHz 1200 baud AX-25 AFSK
JAS-1B 01 Aug 05:12:32 05:21:51 61° 295° (WNW) 05:29:52 435.800 - 435.900 CW/SSB
Oscar 19 01 Aug 05:13:46 05:16:37 15° 307° (NW) 05:19:28 437.125 CW, 437.150 USB
MaSat-1 01 Aug 05:14:14 05:19:00 32° 45° (NE) 05:23:38 437.345 MHz
KITSAT 1 01 Aug 05:16:55 05:22:52 23° 104° (ESE) 05:28:50 435.175 FM
Uosat F 01 Aug 05:23:21 05:28:05 40° 98° (E) 05:32:46 435.120 FM
Gurwin Techsat 1B 01 Aug 05:31:35 05:36:29 39° 295° (WNW) 05:41:22 435.225 FM
OPAL 01 Aug 05:38:10 05:42:06 24° 265° (W) 05:46:04 ?
PCSat 01 Aug 05:46:33 05:48:47 12° 3° (N) 05:51:00 145.825 MHz
